TimeCST,TemperatureF,Dew PointF,Humidity,Sea Level PressureIn,VisibilityMPH,Wind Direction,Wind SpeedMPH,Gust SpeedMPH,PrecipitationIn,Events,Conditions,WindDirDegrees,DateUTC
12:53 AM,37.0,36.0,96,30.19,5.0,Calm,Calm,-,N/A,,Clear,0,2012-11-08 06:53:00
1:53 AM,32.0,30.0,92,30.20,2.5,Calm,Calm,-,N/A,,Clear,0,2012-11-08 07:53:00
2:29 AM,33.8,33.8,100,30.20,1.5,Calm,Calm,-,N/A,,Clear,0,2012-11-08 08:29:00
2:53 AM,33.1,32.0,96,30.20,1.5,Calm,Calm,-,N/A,,Clear,0,2012-11-08 08:53:00
3:01 AM,30.2,30.2,100,30.20,3.0,Calm,Calm,-,N/A,,Clear,0,2012-11-08 09:01:00
3:16 AM,32.0,30.2,93,30.20,1.8,Calm,Calm,-,N/A,,Clear,0,2012-11-08 09:16:00
3:20 AM,33.8,32.0,93,30.20,1.0,Calm,Calm,-,N/A,,Mist,0,2012-11-08 09:20:00
3:40 AM,30.2,30.2,100,30.20,0.5,Calm,Calm,-,N/A,Fog,Light Freezing Fog,0,2012-11-08 09:40:00
3:49 AM,30.2,30.2,100,30.20,0.2,Calm,Calm,-,N/A,Fog,Light Freezing Fog,0,2012-11-08 09:49:00
3:53 AM,30.9,30.0,96,30.21,0.5,Calm,Calm,-,N/A,Fog,Light Freezing Fog,0,2012-11-08 09:53:00
4:04 AM,30.2,30.2,100,30.20,0.8,Calm,Calm,-,N/A,,Mist,0,2012-11-08 10:04:00
4:14 AM,30.2,30.2,100,30.21,0.2,Calm,Calm,-,N/A,Fog,Light Freezing Fog,0,2012-11-08 10:14:00
4:22 AM,30.2,28.4,93,30.21,1.2,Calm,Calm,-,N/A,,Mostly Cloudy,0,2012-11-08 10:22:00
4:30 AM,30.2,28.4,93,30.22,0.2,Calm,Calm,-,N/A,Fog,Light Freezing Fog,0,2012-11-08 10:30:00
4:53 AM,30.0,28.9,96,30.23,0.2,Calm,Calm,-,N/A,Fog,Light Freezing Fog,0,2012-11-08 10:53:00
5:07 AM,30.2,28.4,93,30.22,0.2,Calm,Calm,-,N/A,Fog,Light Freezing Fog,0,2012-11-08 11:07:00
5:53 AM,30.0,28.9,96,30.23,0.2,Calm,Calm,-,N/A,Fog,Light Freezing Fog,0,2012-11-08 11:53:00
6:53 AM,30.0,28.9,96,30.25,0.2,Calm,Calm,-,N/A,Fog,Light Freezing Fog,0,2012-11-08 12:53:00
7:53 AM,33.1,33.1,100,30.27,0.2,Calm,Calm,-,N/A,Fog,Fog,0,2012-11-08 13:53:00
8:53 AM,39.0,39.0,100,30.28,0.2,Calm,Calm,-,N/A,Fog,Fog,0,2012-11-08 14:53:00
9:11 AM,42.8,41.0,93,30.27,1.0,Calm,Calm,-,N/A,,Overcast,0,2012-11-08 15:11:00
9:19 AM,42.8,42.8,100,30.27,3.0,Calm,Calm,-,N/A,,Mostly Cloudy,0,2012-11-08 15:19:00
9:33 AM,44.6,42.8,93,30.27,5.0,Calm,Calm,-,N/A,,Scattered Clouds,0,2012-11-08 15:33:00
9:53 AM,46.0,42.1,86,30.28,7.0,ESE,4.6,-,N/A,,Clear,120,2012-11-08 15:53:00
10:53 AM,51.1,37.9,61,30.26,10.0,SSW,9.2,-,N/A,,Clear,210,2012-11-08 16:53:00
11:53 AM,53.1,37.9,57,30.23,10.0,SW,8.1,-,N/A,,Clear,220,2012-11-08 17:53:00
12:53 PM,54.0,36.0,51,30.20,10.0,Variable,3.5,-,N/A,,Clear,0,2012-11-08 18:53:00
1:53 PM,55.0,37.0,51,30.19,10.0,Variable,5.8,-,N/A,,Clear,0,2012-11-08 19:53:00
2:53 PM,55.0,37.0,51,30.18,10.0,SW,4.6,-,N/A,,Clear,230,2012-11-08 20:53:00
3:53 PM,55.0,37.0,51,30.17,10.0,South,6.9,-,N/A,,Clear,170,2012-11-08 21:53:00
4:53 PM,52.0,36.0,54,30.17,10.0,South,3.5,-,N/A,,Clear,190,2012-11-08 22:53:00
5:53 PM,48.9,36.0,61,30.17,10.0,South,3.5,-,N/A,,Clear,180,2012-11-08 23:53:00
6:53 PM,44.1,36.0,73,30.18,10.0,SSW,3.5,-,N/A,,Clear,200,2012-11-09 00:53:00
7:53 PM,46.9,36.0,66,30.17,10.0,Calm,Calm,-,N/A,,Clear,0,2012-11-09 01:53:00
8:53 PM,45.0,36.0,71,30.16,10.0,SSE,3.5,-,N/A,,Clear,160,2012-11-09 02:53:00
9:53 PM,39.0,35.1,86,30.16,10.0,Calm,Calm,-,N/A,,Clear,0,2012-11-09 03:53:00
10:53 PM,39.0,35.1,86,30.15,10.0,Calm,Calm,-,N/A,,Clear,0,2012-11-09 04:53:00
11:53 PM,41.0,35.1,79,30.15,9.0,South,4.6,-,N/A,,Clear,170,2012-11-09 05:53:00